Starlink 3754

operational
NORAD ID: 52350 Int'l Des: 2022-045 Owner: SPXS Country: US Constellation: starlink
LEOCIRCULAR

About Starlink 3754

Description loading...

Live Position

Loading 3D Globe...

Upcoming Passes

Altitude History

Altitude vs Time

uPlot chart will show altitude changes over time

Two-Line Element Set

1 52350U 22045V 26073.66428837 .00000519 00000-0 50707-4 0 9998
2 52350 53.2175 176.7906 0001701 95.8366 264.2820 15.08844669216534
Epoch: Mar 14, 2026 • Age: 17 hours

Current Status

Altitude 553.2 km
Velocity 7.58 km/s
Sub-Earth Point -38.25°S, 173.42°W
Launch Date Apr 29, 2022
Age 3.8 years
Type internet

Technical Details

Classification Payload
Mass 297.00 kg
Dry Mass 275.00 kg
Total Mass 297.00 kg
Length 0.20 m
Diameter 2.80 m
Span 9.00 m
Shape Box + pan
Manufacturer SPXS
Bus Type Starlink
Phase Status In Orbit
Owner/State SPXS/US

Large Constellations

Loading constellations...